sat.trackr.live / text

‹ back to catalog

STARLINK-36390

NORAD 67886 · 2026-035H

PAYLOAD ACTIVE UNKNOWN

§ Identity

Operator
Country
US
Launch date
2026-02-21
Launch site
AFWTR
Launch vehicle
Mass (kg)
RCS (m²)

Purposes: comms

External: N2YO · Heavens-Above · Gunter

§ Orbital elements

Epoch: 2026-09-19T02:15:34.313760Z

Period
93.91 min
Inclination
97.2851°
Eccentricity
0.0001846
Mean motion
15.33458871 rev/d
Perigee alt
464.2 km
Apogee alt
466.8 km
Semi-major
6,843.6 km
B*
4.6062e-4
RAAN
193.9040°
Arg perigee
98.7094°
Mean anomaly
261.4358°
Rev number
3,362

§ Raw data

STARLINK-363901 67886U 26035H   26262.09414715  .00014831  00000+0  46062-3 0  99972 67886  97.2851 193.9040 0001846  98.7094 261.4358 15.33458871 33629

JSON: /api/v1/satellites/67886 · /tle

For live sub-satellite position, see the globe view (requires WebGL).

§ Visibility from observer

Set your observer location to see the next 7 days of passes ≥ 10°. The values pass through the URL so the page stays shareable.

No JS? Fill the form by hand. The geolocation button needs JavaScript.